This demonstration page uses our WeatherBlox Daily Observations layout. Learn more.

Left ArrowRight Arrow

34.02893, -84.19858

Hourly Observations for March 27, 2022

Temp ( °F °C ) Dew Point ( °F °C ) Humidity (%) Winds ( mph kmh ) Pressure ( in mb ) Visibility ( mi km ) Precip ( " mm )
12:53 am 00:53 Clear 51 10.6 16 -8.9 25 25 WNW 7 11 29.96 1015 10 16 0.00 0.00
1:53 am 01:53 Clear 50 10 17 -8.3 27 27 WNW 8 13 29.96 1015 10 16 0.00 0.00
2:53 am 02:53 Clear 48 8.9 18 -7.8 30 30 WNW 7 11 29.96 1015 10 16 0.00 0.00
3:53 am 03:53 Clear 47 8.3 18 -7.8 31 31 WNW 9 15 29.96 1015 10 16 0.00 0.00
4:53 am 04:53 Clear 46 7.8 17 -8.3 31 31 NW 8 13 29.96 1015 10 16 0.00 0.00
5:53 am 05:53 Clear 45 7.2 18 -7.8 34 34 NW 10 17 29.99 1016 10 16 0.00 0.00
6:53 am 06:53 Clear 44 6.7 17 -8.3 34 34 NW 9 15 30.01 1016 10 16 0.00 0.00
7:53 am 07:53 Sunny 43 6.1 18 -7.8 37 37 NW 8 13 30.04 1017 10 16 0.00 0.00
8:53 am 08:53 Sunny 45 7.2 19 -7.2 35 35 NW 12 19 30.05 1018 10 16 0.00 0.00
9:53 am 09:53 Sunny 47 8.3 19 -7.2 33 33 NNW 15 24 30.06 1018 10 16 0.00 0.00
10:53 am 10:53 Sunny 49 9.4 20 -6.7 32 32 WNW 13 20 30.08 1019 10 16 0.00 0.00
11:53 am 11:53 Sunny 52 11.1 19 -7.2 27 27 NW 15 24 30.09 1019 10 16 0.00 0.00
12:53 pm 12:53 Sunny 55 12.8 20 -6.7 25 25 NW 17 28 30.09 1019 10 16 0.00 0.00
1:53 pm 13:53 Sunny 57 13.9 22 -5.6 26 26 W 14 22 30.07 1018 10 16 0.00 0.00
2:53 pm 14:53 Sunny 59 15 23 -5 25 25 W 15 24 30.04 1017 10 16 0.00 0.00
3:53 pm 15:53 Sunny 61 16.1 23 -5 23 23 WNW 17 28 30.03 1017 10 16 0.00 0.00
4:53 pm 16:53 Sunny 61 16.1 23 -5 23 23 W 18 30 30.01 1016 10 16 0.00 0.00
5:53 pm 17:53 Sunny 62 16.7 25 -3.9 24 24 W 12 19 30.01 1016 10 16 0.00 0.00
6:53 pm 18:53 Sunny 59 15 23 -5 25 25 WNW 14 22 30.03 1017 10 16 0.00 0.00
7:53 pm 19:53 Sunny 58 14.4 24 -4.4 27 27 WNW 15 24 30.04 1017 10 16 0.00 0.00
8:53 pm 20:53 Mostly Clear 56 13.3 22 -5.6 27 27 NW 8 13 30.05 1018 10 16 0.00 0.00
9:53 pm 21:53 Partly Cloudy 55 12.8 26 -3.3 33 33 W 12 19 30.07 1018 10 16 0.00 0.00
10:53 pm 22:53 Clear 51 10.6 25 -3.9 36 36 NW 9 15 30.09 1019 10 16 0.00 0.00
11:53 pm 23:53 Clear 51 10.6 18 -7.8 27 27 WNW 6 9 30.08 1019 10 16 0.00 0.00

Powered by AerisWeather